Location: Hains Lake
(37.8540°N, 99.8578°W)
Time: 21:46:12
(UTC+00:00)

Vanguard 2 Rocket - Pass Details

Date: 22 April 2021
Orbit: 553 x 3326 km, 32.9° (Epoch: 05 May)

Event Time Altitude Azimuth Distance (km) Brightness Sun altitude
Rises 00:19:20 0° 280° (W) 7,280 13.7 11.1°
Reaches altitude 10° 00:24:21 10° 277° (W) 6,288 16.7 10.1°
Maximum altitude 00:43:38 58° 206° (SSW) 3,192 9.9 6.4°
Drops below altitude 10° 00:57:02 10° 132° (SE) 4,528 9.9 3.8°
Sets 01:00:00 0° 128° (SE) 5,210 10.2 3.2°
